TITAN 3C TRANSTAGE DEB, 3386

Orbit data source: Space-Track

TITAN 3C TRANSTAGE DEB, 3386 is space debris in LEO originally from a launch on Fri, 15 Oct 1965 UTC launched from the Air Force Eastern Test Range (AFETR). Debris objects in space refer to the collection of defunct objects orbiting the Earth. Examples of debris include non-operational satellites, rocket bodies, and fragments generated from explosions, collisions, or faulty payload assembly.

Loading next visibility...
Identifier
3386, 1965-082MY
Orbit
LEO
Country
Flag of USUS
Related business
Manufacturer
Unknown
Mission
Spacecraft
Bus & Motor
Unknown
Mass
Unknown
Launch date (UTC)
1965-10-15 (61 years ago)
Launch vehicle
Unknown
Launch site
Air Force Eastern Test Range (AFETR)
Object type
Payload
Rocket body
Debris
Shape & HBR
Unknown shape, 0.1 m
Radar Cross Section
Medium (>0.1 m² and <1 m²)

Expand to show TLE details & history
Last TLE update: 8 hours ago

TLE from 8 hours ago
0 TITAN 3C TRANSTAGE DEB
1  3386U 65082MY  26237.76213534  .00002866  00000-0  22831-3 0  9993
2  3386  32.3706 103.9197 0005444 189.1501 170.9061 14.98922396256274
Epoch: 2026-08-25T18:17Z
TLE epoch observation values (Epoch: 2026-08-25T18:17:28.493Z)
Latitude
0.00002°
Longitude
-144.47382°
Altitude
572.61 km
Speed
7.575 km/s
True Right ascension
06h 55m 40s
True Declination
0° 00' 00"
Sunlit
Object was in daylight at epoch
Visualization orbit readout
Latitude
Unknown
Longitude
Unknown
Altitude
Unknown
Speed
Unknown
Apparent Right ascension
Unknown
Apparent Declination
Unknown
Sunlit
N/A
Visualization observer readout
Local Sidereal Time
17:36:18
Azimuth
Unknown
Elevation
Unknown
Doppler factor
Unknown
Orbital elements
Apogee altitude
577.628 km
Perigee altitude
570.059 km
Semi-major axis
6,951.98 km
Eccentricity
0.00054
Inclination
32.3706°
RAAN
103.9197°
Arg. of periapsis
189.1501°
True anomaly
170.91595°
Mean anomaly
170.9061°
Eccentric anomaly
170.91103°
Mean motion
3.74438 °/min
Orbital period
96.14 mins
BSTAR
0.00022831

Documentation

Showing up to 5 results
|